Volver al catálogo

ONEWEB-0122

ActivoComunicacionesPO
NORAD 47268·PAYLOAD·🇬🇧 United Kingdom

Lanzado Dec 18, 2020 desde Vostochny Cosmodrome

Loading…

Próximos Pases (próximas 24 horas)

TLE

ActualizadoSource: CelesTrak SupGP

Época: Sep 14, 2026, 19:27 UTC

1 47268C 20100L   26257.81055970 -.00002653  00000+0 -73834-2 0  2578
2 47268  87.8988 332.8729 0001790  95.8674   2.6739 13.12448187    14

Sigue ONEWEB-0122 en tiempo real con AllMySat

Download on the App Store